Weather in Tivoli

Italy     41°57′24″N   12°48′13″E
temp.,
°C
wind,
m/s
gust,
m/s
humid.,
%
clouds,
%
prec.,
mm/h
press.,
hPa
HPBL,
m
18 april, sun
sun1823:00+8s1182100 0.2 101321
02:00+7ese1186100 0.2 101314
05:00+7ene1187100 0.0 101322
08:00+8ese11795 0.0 1013131
11:00+13ssw3362100 0.5 10131312
14:00+11ssw2576100 3.1 10141294
17:00+11s237585 2.6 1013809
20:00+9se1184100 4.3 101412
19 april, mon
mon1923:00+7ne118840 0.5 101514
02:00+6ne2189100 0.5 101419
05:00+5ne118925 0.0 101417
08:00+7ne118396 0.0 1014105
11:00+12wnw216498 0.1 1014866
14:00+13w3362100 0.9 10141501
17:00+12w2275100 2.9 1013579
20:00+8wsw00855 4.8 101411
20 april, tue
tue2023:00+7ese11925 0.0 101610
02:00+6ene1192100 0.0 101612
05:00+5ene119067 0.0 101612
08:00+8e118419 0.0 101689
11:00+13w22635 0.0 1017853
14:00+15w22515 0.4 10161623
17:00+14wsw446633 1.1 1015874
20:00+9w12785 1.1 101776
21 april, wed
wed2123:00+8ene11861 0.0 101912
02:00+7ene11875 0.0 101912
05:00+6ene218780 0.0 101915
08:00+9ene1177100 0.0 1019108
11:00+14sw1156100 0.0 10191113
14:00+16wsw2247100 0.0 10191922
17:00+15wsw4357100 0.0 10181159
20:00+11wnw1271100 0.1 1019123
22 april, thu
thu2223:00+10nne1175100 0.0 102147
02:00+9n1179100 0.0 102023
05:00+7ene11855 0.0 102114
08:00+10ne11735 0.0 1021114
11:00+16w11510 0.0 10211172
14:00+18w234619 0.0 10201747
17:00+17wsw4355100 0.0 1019950
20:00+11nnw1172100 0.0 102019